Weather in Bichurino

Russia / Perm Krai     56°50′45″N   55°25′35″E
temp.,
°C
wind,
m/s
gust,
m/s
humid.,
%
clouds,
%
prec.,
mm/h
press.,
hPa
HPBL,
m
26 february, fri
fri2623:00−26sse36981 0.0 102898
02:00−27sse38970 0.0 1027143
05:00−27sse38960 0.0 1027156
08:00−28se38961 0.0 1026141
11:00−24sse469745 0.0 1025248
14:00−19sse589298 0.0 1024415
17:00−17sse599198 0.0 1022477
20:00−18sse51294100 0.0 1020391
27 february, sat
sat2723:00−19sse5149371 0.0 1018440
02:00−17sse7169293 0.0 1014606
05:00−17se6158997 0.0 1012627
08:00−15se71493100 0.1 1008632
11:00−14se61193100 0.9 1006674
14:00−12ese5892100 0.8 1004740
17:00−11ese4890100 1.1 1004637
20:00−13e4993100 0.1 1004354
28 february, sun
sun2823:00−15e51093100 0.2 1005328
02:00−16ene599399 0.1 1004328
05:00−17ne499399 0.1 1005313
08:00−16ne41094100 0.1 1005357
11:00−14ne5992100 0.3 1006429
14:00−12ne5890100 0.1 1006531
17:00−13nne6990100 0.2 1008547
20:00−16nne5119297 0.1 1010411
1 march, mon
mon123:00−18ne4109492 0.1 1012277
02:00−21nne389664 0.0 1014192
05:00−23nne379538 0.0 1017140
08:00−25nne36950 0.0 1018114
11:00−20ne35930 0.0 1020245
14:00−15nne348523 0.0 1020409
17:00−13n238557 0.0 1020460
20:00−19nw119771 0.0 102020
2 march, tue
tue223:00−20ssw229736 0.0 101920
02:00−21ssw3310014 0.0 101773
05:00−20ssw41010055 0.0 1015230
08:00−20ssw61297100 0.0 1012305
11:00−18ssw61196100 0.3 1010377
14:00−15ssw61193100 0.6 1008497
17:00−13ssw51093100 1.3 1006554
20:00−13ssw41094100 0.4 1005413